Location: ?????????
(42.1392°N, 44.1931°E)
Time: 14:39:13
(UTC+00:00)

Okean 3 Rocket - Pass Details

Date: 07 June 2020
Orbit: 614 x 646 km, 82.5° (Epoch: 13 July)

Event Time Altitude Azimuth Distance (km) Brightness Sun altitude
Exits shadow 00:07:20 13° 189° (S) 1,869 5.5 -12.3°
Maximum altitude 00:11:27 84° 278° (W) 656 3.6 -11.7°
Drops below altitude 10° 00:16:01 10° 7° (N) 2,053 7.1 -11.2°
Sets 00:18:17 0° 8° (N) 2,966 8.0 -10.9°
